Weather History for Oxnard, CA

Change the Weather History Date:

Sunday, March 17, 2013

  Actual Average Record
Temperature  
Mean Temperature 56 °F -  
Max Temperature 61 °F 67 °F 85 °F (1978)
Min Temperature 50 °F 47 °F 33 °F (2009)
Degree Days  
Heating Degree Days 10    
Growing Degree Days 6 (Base 50)    
Moisture  
Dew Point 50 °F    
Average Humidity 89    
Maximum Humidity 100    
Minimum Humidity 67    
Precipitation  
Precipitation 0.00 in - - ()
Sea Level Pressure  
Sea Level Pressure 29.97 in    
Wind  
Wind Speed 2 mph (South)    
Max Wind Speed 8 mph    
Max Gust Speed -    
Visibility 4 miles    
Events Fog    
Averages and records for this station are not official NWS values.
T = Trace of Precipitation, MM = Missing Value Source: NWS Daily Summary

Daily Weather History Graph

Daily Weather History Graph

Search for Another Location

Airport:

Trip Planner

Search our weather history database for the weather conditions in past years. The results will help you decide how hot, cold, wet, or windy it might be!

Date:

Astronomy

Mar. 17, 2013 Rise Set
Actual Time 7:04 AM PDT 7:06 PM PDT
Civil Twilight 6:39 AM PDT 7:31 PM PDT
Nautical Twilight 6:10 AM PDT 8:00 PM PDT
Astronomical Twilight 5:40 AM PDT 8:30 PM PDT
Moon 10:35 AM PDT (3/17) 12:04 AM PDT (3/17)
Length of Visible Light 12h 52m
Length of Day
12h 02m
Waxing Crescent, 32% of the Moon is Illuminated
Mar 17
Waxing Crescent
Mar 19
First Quarter
Mar 27
Full
Apr 2
Last Quarter
Apr 10
New

Hourly Weather History & Observations

Time (PDT) Temp. Dew Point Humidity Pressure Visibility Wind Dir Wind Speed Gust Speed Precip Events Conditions
12:26 AM 51.8 °F 50.0 °F 94% 29.95 in 5.0 mi Calm Calm - N/A   Scattered Clouds
12:35 AM 51.8 °F 50.0 °F 94% 29.96 in 4.0 mi Calm Calm - N/A   Mostly Cloudy
12:51 AM 52.0 °F 51.1 °F 97% 29.95 in 4.0 mi Calm Calm - N/A   Overcast
1:51 AM 53.1 °F 51.1 °F 93% 29.96 in 4.0 mi Calm Calm - N/A   Mostly Cloudy
2:03 AM 51.8 °F 50.0 °F 94% 29.95 in 4.0 mi SSE 4.6 mph - N/A   Mostly Cloudy
2:19 AM 51.8 °F 48.2 °F 88% 29.95 in 2.5 mi Calm Calm - N/A   Mostly Cloudy
2:51 AM 51.1 °F 50.0 °F 96% 29.96 in 1.5 mi Calm Calm - N/A   Overcast
2:57 AM 51.8 °F 50.0 °F 94% 29.95 in 0.8 mi SSE 3.5 mph - N/A   Overcast
3:15 AM 50.0 °F 48.2 °F 94% 29.95 in 1.2 mi South 3.5 mph - N/A   Overcast
3:25 AM 50.0 °F 48.2 °F 94% 29.95 in 0.5 mi South 3.5 mph - N/A Fog Fog
3:51 AM 51.1 °F 51.1 °F 100% 29.95 in 0.2 mi Calm Calm - N/A Fog Fog
4:51 AM 51.1 °F 50.0 °F 96% 29.96 in 0.5 mi NNE 3.5 mph - N/A Fog Fog
5:51 AM 51.1 °F 50.0 °F 96% 29.96 in 0.5 mi Calm Calm - N/A Fog Fog
6:51 AM 50.0 °F 48.9 °F 96% 29.97 in 0.5 mi Calm Calm - N/A Fog Fog
7:51 AM 50.0 °F 50.0 °F 100% 29.98 in 0.2 mi Calm Calm - N/A Fog Fog
8:51 AM 51.1 °F 51.1 °F 100% 30.00 in 0.5 mi Calm Calm - N/A Fog Fog
9:51 AM 51.1 °F 51.1 °F 100% 30.01 in 1.5 mi Calm Calm - N/A   Overcast
10:15 AM 51.8 °F 50.0 °F 94% 30.01 in 4.0 mi Calm Calm - N/A   Overcast
10:51 AM 53.1 °F 51.1 °F 93% 30.01 in 4.0 mi Calm Calm - N/A   Overcast
11:48 AM 57.2 °F 51.8 °F 82% 30.00 in 5.0 mi South 4.6 mph - N/A   Haze
11:51 AM 57.9 °F 51.1 °F 78% 30.00 in 5.0 mi WSW 6.9 mph - N/A   Haze
12:51 PM 59.0 °F 51.1 °F 75% 29.99 in 8.0 mi West 4.6 mph - N/A   Partly Cloudy
1:51 PM 61.0 °F 51.1 °F 70% 29.97 in 10.0 mi SSW 6.9 mph - N/A   Clear
2:51 PM 61.0 °F 50.0 °F 67% 29.94 in 10.0 mi South 6.9 mph - N/A   Clear
3:51 PM 60.1 °F 51.1 °F 72% 29.94 in 10.0 mi South 6.9 mph - N/A   Clear
4:51 PM 59.0 °F 52.0 °F 78% 29.94 in 9.0 mi South 8.1 mph - N/A   Mostly Cloudy
5:51 PM 57.9 °F 51.1 °F 78% 29.95 in 9.0 mi South 6.9 mph - N/A   Scattered Clouds
6:51 PM 55.9 °F 51.1 °F 84% 29.95 in 8.0 mi South 5.8 mph - N/A   Clear
7:51 PM 55.0 °F 50.0 °F 83% 29.95 in 8.0 mi South 3.5 mph - N/A   Clear
8:51 PM 55.0 °F 50.0 °F 83% 29.96 in 7.0 mi SSE 4.6 mph - N/A   Clear
9:51 PM 54.0 °F 50.0 °F 86% 29.97 in 7.0 mi Calm Calm - N/A   Clear
10:51 PM 54.0 °F 50.0 °F 86% 29.99 in 6.0 mi South 4.6 mph - N/A   Clear
11:51 PM 53.1 °F 50.0 °F 89% 29.99 in 6.0 mi SE 4.6 mph - N/A   Clear